| time (UTC) | temp F | wind direction | speed MPH | gust MPH | rain 1hr in | rain 24hr in | rain mn in | humidity % | barometer mb |
| 20260510154527 | 57 | 311 | 3.0 | 9.0 | 0.00 | 0.06 | 0.00 | 42 | 1013.7 |
| 20260510153524 | 57 | 290 | 1.0 | 3.0 | 0.00 | 0.06 | 0.00 | 43 | 1013.6 |
| 20260510152520 | 56 | 288 | 3.0 | 7.0 | 0.00 | 0.06 | 0.00 | 45 | 1013.5 |
| 20260510151515 | 56 | 238 | 1.0 | 3.0 | 0.00 | 0.06 | 0.00 | 47 | 1013.5 |
| 20260510150552 | 55 | 295 | 2.0 | 6.0 | 0.00 | 0.06 | 0.00 | 47 | 1013.3 |
| 20260510145528 | 55 | 305 | 2.0 | 4.0 | 0.00 | 0.06 | 0.00 | 47 | 1013.4 |
| 20260510144524 | 54 | 283 | 4.0 | 9.0 | 0.00 | 0.06 | 0.00 | 47 | 1013.3 |
| 20260510143520 | 53 | 293 | 4.0 | 9.0 | 0.00 | 0.06 | 0.00 | 47 | 1013.2 |
| 20260510142516 | 53 | 280 | 4.0 | 8.0 | 0.00 | 0.06 | 0.00 | 47 | 1013.1 |
| 20260510141532 | 52 | 324 | 2.0 | 7.0 | 0.00 | 0.06 | 0.00 | 50 | 1013.2 |
| 20260510140528 | 52 | 276 | 3.0 | 7.0 | 0.00 | 0.06 | 0.00 | 49 | 1013.2 |
| 20260510135523 | 52 | 10 | 1.0 | 4.0 | 0.00 | 0.06 | 0.00 | 52 | 1013.0 |
| 20260510134519 | 51 | 310 | 3.0 | 6.0 | 0.00 | 0.06 | 0.00 | 53 | 1013.0 |
| 20260510133535 | 51 | 322 | 1.0 | 3.0 | 0.00 | 0.06 | 0.00 | 53 | 1013.0 |
| 20260510132530 | 50 | 331 | 2.0 | 4.0 | 0.00 | 0.06 | 0.00 | 55 | 1012.7 |
| 20260510131527 | 50 | 328 | 3.0 | 7.0 | 0.00 | 0.06 | 0.00 | 56 | 1012.6 |
| 20260510130523 | 49 | 350 | 1.0 | 3.0 | 0.00 | 0.06 | 0.00 | 58 | 1012.5 |
| 20260510125519 | 49 | 334 | 2.0 | 6.0 | 0.00 | 0.06 | 0.00 | 61 | 1012.4 |
| 20260510124534 | 48 | 352 | 1.0 | 3.0 | 0.00 | 0.06 | 0.00 | 62 | 1012.4 |
| 20260510123531 | 48 | 325 | 3.0 | 7.0 | 0.00 | 0.06 | 0.00 | 64 | 1012.2 |
| 20260510122527 | 47 | 327 | 1.0 | 4.0 | 0.00 | 0.06 | 0.00 | 65 | 1012.2 |
| 20260510121543 | 47 | 325 | 3.0 | 7.0 | 0.00 | 0.06 | 0.00 | 67 | 1012.1 |
| 20260510120518 | 46 | 321 | 1.0 | 4.0 | 0.00 | 0.06 | 0.00 | 67 | 1011.9 |
| 20260510115535 | 45 | 324 | 1.0 | 3.0 | 0.00 | 0.06 | 0.00 | 69 | 1011.7 |
| 20260510114531 | 45 | 331 | 1.0 | 4.0 | 0.00 | 0.06 | 0.00 | 71 | 1011.6 |
| 20260510113607 | 44 | 293 | 1.0 | 3.0 | 0.00 | 0.06 | 0.00 | 73 | 1011.5 |
| 20260510112523 | 44 | 320 | 2.0 | 3.0 | 0.00 | 0.06 | 0.00 | 73 | 1011.3 |
| 20260510111519 | 43 | 298 | 1.0 | 3.0 | 0.00 | 0.06 | 0.00 | 74 | 1011.2 |
| 20260510110535 | 42 | 309 | 0.0 | 1.0 | 0.00 | 0.06 | 0.00 | 74 | 1011.1 |
| 20260510105531 | 42 | 318 | 1.0 | 2.0 | 0.00 | 0.06 | 0.00 | 75 | 1011.0 |
| 20260510104527 | 42 | 312 | 0.0 | 1.0 | 0.00 | 0.06 | 0.00 | 75 | 1010.8 |
| 20260510103543 | 42 | 311 | 0.0 | 1.0 | 0.00 | 0.06 | 0.00 | 73 | 1010.7 |
| 20260510102539 | 42 | 0.0 | 0.0 | 0.00 | 0.06 | 0.00 | 72 | 1010.5 | |
| 20260510101535 | 42 | 0.0 | 0.0 | 0.00 | 0.06 | 0.00 | 72 | 1010.5 | |
| 20260510100531 | 42 | 314 | 0.0 | 1.0 | 0.00 | 0.06 | 0.00 | 72 | 1010.3 |
| 20260510095527 | 42 | 0.0 | 0.0 | 0.00 | 0.06 | 0.00 | 72 | 1010.3 | |
| 20260510094523 | 42 | 0.0 | 0.0 | 0.00 | 0.06 | 0.00 | 72 | 1010.2 | |
| 20260510093519 | 43 | 320 | 1.0 | 2.0 | 0.00 | 0.06 | 0.00 | 72 | 1010.1 |
| 20260510092515 | 43 | 326 | 1.0 | 1.0 | 0.00 | 0.06 | 0.00 | 71 | 1009.9 |
| 20260510091531 | 43 | 326 | 1.0 | 2.0 | 0.00 | 0.06 | 0.00 | 71 | 1009.7 |
| 20260510090527 | 44 | 326 | 1.0 | 2.0 | 0.00 | 0.06 | 0.00 | 71 | 1009.5 |
| 20260510085523 | 44 | 340 | 1.0 | 2.0 | 0.00 | 0.06 | 0.00 | 70 | 1009.3 |
| 20260510084519 | 44 | 0.0 | 0.0 | 0.00 | 0.06 | 0.00 | 70 | 1009.1 | |
| 20260510083535 | 44 | 30 | 1.0 | 3.0 | 0.00 | 0.06 | 0.00 | 70 | 1008.8 |
| 20260510082531 | 44 | 11 | 1.0 | 2.0 | 0.00 | 0.06 | 0.00 | 70 | 1008.8 |
| 20260510081527 | 45 | 9 | 1.0 | 3.0 | 0.00 | 0.06 | 0.00 | 69 | 1008.5 |
| 20260510080524 | 45 | 20 | 1.0 | 3.0 | 0.00 | 0.06 | 0.00 | 69 | 1008.3 |
| 20260510075520 | 45 | 24 | 1.0 | 2.0 | 0.00 | 0.06 | 0.00 | 68 | 1007.9 |
| 20260510074535 | 46 | 18 | 1.0 | 3.0 | 0.00 | 0.06 | 0.00 | 68 | 1007.9 |
| 20260510073531 | 46 | 9 | 2.0 | 7.0 | 0.00 | 0.06 | 0.00 | 68 | 1007.8 |
| 20260510072527 | 46 | 29 | 1.0 | 6.0 | 0.00 | 0.06 | 0.00 | 67 | 1007.7 |
| 20260510071523 | 46 | 53 | 3.0 | 6.0 | 0.00 | 0.06 | 0.00 | 67 | 1007.5 |
| 20260510070519 | 47 | 53 | 2.0 | 7.0 | 0.00 | 0.06 | 0.00 | 67 | 1007.5 |
| 20260510065555 | 47 | 34 | 2.0 | 6.0 | 0.00 | 0.06 | 0.00 | 67 | 1007.4 |
| 20260510064531 | 48 | 35 | 2.0 | 7.0 | 0.00 | 0.06 | 0.00 | 67 | 1007.5 |
| 20260510063527 | 48 | 50 | 1.0 | 4.0 | 0.00 | 0.06 | 0.00 | 66 | 1007.3 |
| 20260510062523 | 49 | 59 | 2.0 | 8.0 | 0.00 | 0.06 | 0.00 | 65 | 1007.3 |
| 20260510061519 | 50 | 26 | 2.0 | 7.0 | 0.00 | 0.06 | 0.00 | 63 | 1007.0 |
| 20260510060535 | 51 | 26 | 2.0 | 8.0 | 0.00 | 0.06 | 0.00 | 61 | 1006.8 |
| 20260510055531 | 51 | 4 | 0.0 | 3.0 | 0.00 | 0.06 | 0.00 | 58 | 1006.7 |
| 20260510054527 | 52 | 331 | 0.0 | 1.0 | 0.00 | 0.06 | 0.00 | 58 | 1006.3 |
| 20260510053523 | 52 | 342 | 0.0 | 1.0 | 0.00 | 0.06 | 0.00 | 58 | 1006.3 |
| 20260510052519 | 52 | 3 | 0.0 | 3.0 | 0.00 | 0.06 | 0.00 | 57 | 1006.0 |
| 20260510051535 | 53 | 305 | 0.0 | 2.0 | 0.00 | 0.06 | 0.00 | 56 | 1006.0 |
| 20260510050550 | 53 | 351 | 0.0 | 2.0 | 0.00 | 0.06 | 0.00 | 56 | 1005.7 |
| 20260510045527 | 53 | 1 | 1.0 | 3.0 | 0.00 | 0.06 | 0.00 | 56 | 1005.6 |
| 20260510044603 | 53 | 335 | 1.0 | 3.0 | 0.00 | 0.06 | 0.00 | 55 | 1005.4 |
| 20260510043518 | 54 | 349 | 1.0 | 3.0 | 0.00 | 0.06 | 0.00 | 55 | 1005.4 |
| 20260510042534 | 54 | 331 | 1.0 | 4.0 | 0.00 | 0.06 | 0.00 | 55 | 1005.2 |
| 20260510041530 | 54 | 316 | 1.0 | 3.0 | 0.00 | 0.06 | 0.00 | 55 | 1005.0 |
| 20260510040546 | 55 | 298 | 1.0 | 3.0 | 0.00 | 0.06 | 0.00 | 54 | 1004.9 |
| 20260510035522 | 55 | 342 | 2.0 | 6.0 | 0.00 | 0.06 | 0.06 | 55 | 1005.0 |
| 20260510034518 | 55 | 13 | 2.0 | 7.0 | 0.00 | 0.06 | 0.06 | 55 | 1004.7 |
| 20260510033534 | 56 | 356 | 2.0 | 6.0 | 0.00 | 0.06 | 0.06 | 55 | 1004.5 |
| 20260510032530 | 56 | 334 | 3.0 | 9.0 | 0.00 | 0.06 | 0.06 | 54 | 1004.3 |
| 20260510031526 | 57 | 337 | 2.0 | 7.0 | 0.00 | 0.06 | 0.06 | 55 | 1004.1 |
| 20260510030521 | 57 | 337 | 3.0 | 7.0 | 0.00 | 0.06 | 0.06 | 56 | 1004.0 |
| 20260510025518 | 58 | 352 | 3.0 | 8.0 | 0.00 | 0.06 | 0.06 | 56 | 1003.9 |
| 20260510024554 | 59 | 342 | 2.0 | 9.0 | 0.00 | 0.06 | 0.06 | 54 | 1003.6 |
| 20260510023529 | 59 | 352 | 3.0 | 7.0 | 0.00 | 0.06 | 0.06 | 51 | 1003.3 |
| 20260510022525 | 60 | 353 | 2.0 | 8.0 | 0.00 | 0.06 | 0.06 | 50 | 1002.8 |
| 20260510021521 | 60 | 330 | 3.0 | 10.0 | 0.00 | 0.06 | 0.06 | 51 | 1002.4 |
| 20260510020517 | 60 | 329 | 0.0 | 2.0 | 0.00 | 0.06 | 0.06 | 51 | 1002.0 |
| 20260510015533 | 61 | 340 | 0.0 | 1.0 | 0.00 | 0.06 | 0.06 | 50 | 1001.8 |
| 20260510014609 | 61 | 0.0 | 0.0 | 0.00 | 0.06 | 0.06 | 49 | 1001.5 | |
| 20260510013525 | 61 | 340 | 0.0 | 2.0 | 0.00 | 0.06 | 0.06 | 49 | 1001.2 |
| 20260510012521 | 62 | 333 | 0.0 | 2.0 | 0.00 | 0.06 | 0.06 | 48 | 1001.0 |
| 20260510011516 | 63 | 327 | 1.0 | 4.0 | 0.00 | 0.06 | 0.06 | 46 | 1000.9 |
| 20260510010532 | 63 | 327 | 2.0 | 4.0 | 0.00 | 0.06 | 0.06 | 46 | 1000.7 |
| 20260510005528 | 63 | 337 | 2.0 | 6.0 | 0.00 | 0.06 | 0.06 | 45 | 1000.6 |
| 20260510004524 | 64 | 329 | 2.0 | 4.0 | 0.00 | 0.06 | 0.06 | 44 | 1000.2 |
| 20260510003520 | 65 | 325 | 3.0 | 10.0 | 0.00 | 0.06 | 0.06 | 43 | 1000.3 |
| 20260510002536 | 65 | 318 | 5.0 | 11.0 | 0.00 | 0.06 | 0.06 | 41 | 1000.1 |
| 20260510001532 | 66 | 309 | 5.0 | 10.0 | 0.00 | 0.06 | 0.06 | 40 | 1000.0 |
| 20260510000527 | 66 | 297 | 7.0 | 17.0 | 0.00 | 0.06 | 0.06 | 39 | 999.9 |
| 20260509235523 | 67 | 291 | 8.0 | 17.0 | 0.00 | 0.06 | 0.06 | 38 | 999.9 |
| 20260509234519 | 67 | 300 | 7.0 | 16.0 | 0.00 | 0.06 | 0.06 | 37 | 999.8 |
| 20260509233536 | 67 | 296 | 9.0 | 18.0 | 0.00 | 0.06 | 0.06 | 36 | 999.7 |
| 20260509232531 | 68 | 299 | 11.0 | 25.0 | 0.00 | 0.06 | 0.06 | 36 | 999.5 |
| 20260509231527 | 68 | 294 | 8.0 | 17.0 | 0.00 | 0.06 | 0.06 | 36 | 999.4 |
| 20260509230523 | 69 | 289 | 12.0 | 25.0 | 0.00 | 0.06 | 0.06 | 35 | 999.2 |
| 20260509225519 | 69 | 281 | 9.0 | 21.0 | 0.00 | 0.06 | 0.06 | 36 | 999.0 |
| 20260509224515 | 69 | 296 | 12.0 | 25.0 | 0.00 | 0.06 | 0.06 | 38 | 998.7 |
| 20260509223531 | 68 | 279 | 9.0 | 16.0 | 0.00 | 0.06 | 0.06 | 37 | 998.6 |
| 20260509222527 | 69 | 278 | 8.0 | 21.0 | 0.00 | 0.06 | 0.06 | 38 | 998.4 |
| 20260509221523 | 69 | 277 | 13.0 | 22.0 | 0.00 | 0.06 | 0.06 | 37 | 998.4 |
| 20260509220519 | 69 | 274 | 13.0 | 23.0 | 0.00 | 0.06 | 0.06 | 37 | 998.1 |
| 20260509215536 | 69 | 299 | 12.0 | 24.0 | 0.00 | 0.06 | 0.06 | 36 | 997.9 |
| 20260509214530 | 69 | 287 | 12.0 | 23.0 | 0.00 | 0.06 | 0.06 | 38 | 997.7 |
| 20260509213526 | 69 | 289 | 9.0 | 18.0 | 0.00 | 0.06 | 0.06 | 40 | 997.6 |
| 20260509212521 | 69 | 284 | 11.0 | 17.0 | 0.00 | 0.06 | 0.06 | 40 | 997.7 |
| 20260509211518 | 68 | 292 | 8.0 | 15.0 | 0.00 | 0.06 | 0.06 | 47 | 997.8 |
| 20260509210554 | 68 | 296 | 8.0 | 21.0 | 0.00 | 0.06 | 0.06 | 53 | 997.8 |
| 20260509205550 | 67 | 296 | 8.0 | 18.0 | 0.00 | 0.06 | 0.06 | 53 | 998.1 |
| 20260509204526 | 66 | 302 | 5.0 | 11.0 | 0.00 | 0.06 | 0.06 | 60 | 998.1 |
| 20260509203522 | 65 | 299 | 4.0 | 10.0 | 0.00 | 0.06 | 0.06 | 64 | 998.4 |
| 20260509202518 | 64 | 300 | 4.0 | 8.0 | 0.02 | 0.06 | 0.06 | 70 | 998.5 |
| 20260509201534 | 62 | 311 | 3.0 | 6.0 | 0.05 | 0.06 | 0.06 | 72 | 998.5 |
| 20260509200530 | 61 | 298 | 4.0 | 8.0 | 0.05 | 0.06 | 0.06 | 74 | 998.6 |
| 20260509195526 | 59 | 294 | 4.0 | 8.0 | 0.06 | 0.06 | 0.06 | 74 | 998.8 |
| 20260509194522 | 58 | 305 | 3.0 | 4.0 | 0.06 | 0.06 | 0.06 | 74 | 998.6 |
| 20260509193518 | 57 | 296 | 4.0 | 11.0 | 0.05 | 0.05 | 0.05 | 71 | 999.1 |
| 20260509192534 | 60 | 311 | 6.0 | 13.0 | 0.04 | 0.04 | 0.04 | 64 | 999.3 |
| 20260509191530 | 65 | 310 | 12.0 | 21.0 | 0.01 | 0.01 | 0.01 | 56 | 998.6 |
| 20260509190526 | 65 | 260 | 8.0 | 17.0 | 0.00 | 0.00 | 0.00 | 60 | 997.9 |
| 20260509185522 | 65 | 289 | 4.0 | 11.0 | 0.00 | 0.00 | 0.00 | 59 | 997.7 |
| 20260509184518 | 65 | 265 | 4.0 | 9.0 | 0.00 | 0.00 | 0.00 | 62 | 997.9 |
| 20260509183534 | 66 | 265 | 6.0 | 14.0 | 0.00 | 0.00 | 0.00 | 62 | 997.9 |
| 20260509182530 | 65 | 243 | 5.0 | 14.0 | 0.00 | 0.00 | 0.00 | 63 | 997.7 |
| 20260509181526 | 66 | 177 | 7.0 | 14.0 | 0.00 | 0.00 | 0.00 | 62 | 997.8 |
| 20260509180543 | 66 | 175 | 8.0 | 21.0 | 0.00 | 0.00 | 0.00 | 62 | 998.1 |
| 20260509175518 | 66 | 195 | 7.0 | 21.0 | 0.00 | 0.00 | 0.00 | 63 | 998.1 |
| 20260509174534 | 66 | 214 | 7.0 | 14.0 | 0.00 | 0.00 | 0.00 | 63 | 998.0 |
| 20260509173530 | 66 | 143 | 7.0 | 15.0 | 0.00 | 0.00 | 0.00 | 64 | 998.2 |
| 20260509172526 | 66 | 169 | 8.0 | 18.0 | 0.00 | 0.00 | 0.00 | 65 | 998.4 |
| 20260509171522 | 64 | 153 | 8.0 | 18.0 | 0.00 | 0.00 | 0.00 | 68 | 998.4 |
| 20260509170518 | 64 | 140 | 6.0 | 15.0 | 0.00 | 0.00 | 0.00 | 68 | 998.5 |
| 20260509165534 | 64 | 158 | 6.0 | 14.0 | 0.00 | 0.00 | 0.00 | 67 | 998.6 |
| 20260509164610 | 63 | 157 | 7.0 | 15.0 | 0.00 | 0.00 | 0.00 | 66 | 998.7 |
| 20260509163526 | 64 | 122 | 6.0 | 17.0 | 0.00 | 0.00 | 0.00 | 64 | 998.7 |
| 20260509162522 | 65 | 155 | 9.0 | 18.0 | 0.00 | 0.00 | 0.00 | 66 | 998.7 |
| 20260509161518 | 64 | 146 | 8.0 | 17.0 | 0.00 | 0.00 | 0.00 | 67 | 998.8 |
| 20260509160534 | 64 | 132 | 9.0 | 21.0 | 0.00 | 0.00 | 0.00 | 67 | 999.2 |
| 20260509155531 | 65 | 177 | 7.0 | 15.0 | 0.00 | 0.00 | 0.00 | 65 | 999.3 |